Regional Weather Roundup
Issued by NWS

Home | Current Version | Previous Version | Graphics & Text | Print | Product List | Glossary On
Versions: 1 2 3 4 5 6 7 8 9 10 11 12 13 14 15 16 17 18 19 20 21 22 23 24 25 26 27 28 29 30 31 32 33 34 35 36 37 38 39 40 41 42 43 44 45 46 47 48 49 50
000
ASUS43 KIND 230509
RWRIN

WEATHER ROUNDUP FOR INDIANA
NATIONAL WEATHER SERVICE INDIANAPOLIS IN
100 AM EDT SUN JUL 23 2017

NOTE: "FAIR" INDICATES FEW OR NO CLOUDS BELOW 12,000 FEET WITH NO
SIGNIFICANT WEATHER AND/OR OBSTRUCTIONS TO VISIBILITY.

* - STATION DOES NOT REPORT WEATHER SUCH AS PRECIPITATION OR FOG.

+ - STATION NOT QUALITY CONTROLLED BY THE NATIONAL WEATHER SERVICE.
    USE DATA WITH CAUTION...ESPECIALLY DEWPOINT AND RELATIVE
    HUMIDITY OBSERVATIONS.

INZ001>003-010>013-019-020-230600-
NORTHWEST INDIANA

CITY           SKY/WX    TMP DP  RH WIND       PRES   REMARKS
GARY /AIRPORT/ PTCLDY    72  70  93 CALM      29.81F
KNOX *+        CLEAR     72  70  94 CALM      29.82S
LA PORTE +     CLEAR     70  68  96 CALM      29.82F
MICHIGAN CITY+ PTCLDY    70  70 100 CALM      29.82S
MONTICELLO +   PTCLDY    75  74  95 CALM      29.82S
RENSSELAER +   MOCLDY    73  72  94 CALM      29.82S
VALPARAISO     CLEAR     71  70  96 CALM      29.83R

$$

LMZ046-743>745-230600-
SOUTHERN LAKE MICHIGAN

STATION/POSITION TIME  TEMP    WIND        PRES    WAVE
                       AIR SEA DIR/SP/G            HT
                 (UTC) (F)     (DEG/KT/KT) (MB)    (FT)
BURNS HARBOR     0440   74      80/  5/  6 1010.2S
MICHIGAN CITY    0440   73      70/  2/  3   N/A
5NW MICH CITY    0500   74 75  100/  4/  6   N/A     0

$$

INZ004-005-014>016-021>024-230600-
NORTH CENTRAL INDIANA

CITY           SKY/WX    TMP DP  RH WIND       PRES   REMARKS
GOSHEN         CLEAR     71  66  84 CALM      29.82S
LOGANSPORT +   CLOUDY    72  72 100 CALM      29.84S
PERU/GRISSOM   MOCLDY    74  74 100 S3        29.82R
ROCHESTER +    PTCLDY    73  73 100 CALM      29.83S
SOUTH BEND     CLEAR     70  69  97 CALM      29.82S
WARSAW +       CLEAR     70  70 100 CALM      29.83S

$$

INZ006>009-017-018-025>027-230600-
NORTHEAST INDIANA

CITY           SKY/WX    TMP DP  RH WIND       PRES   REMARKS
AUBURN +       CLEAR     70  66  88 CALM      29.83R
FORT WAYNE     PTCLDY    73  69  87 CALM      29.83S
HUNTINGTON +   CLOUDY    73  71  95 CALM      29.83R
KENDALLVILLE + CLEAR     67  67 100 CALM      29.83S

$$

INZ028-029-035-036-043>045-051>053-230600-
WEST CENTRAL INDIANA

CITY           SKY/WX    TMP DP  RH WIND       PRES   REMARKS
GREENCASTLE +  CLOUDY    73  72  94 CALM      29.84F
LAFAYETTE      MOCLDY    75  74  96 CALM      29.81S
TERRE HAUTE    TSTM      72  69  90 SW5       29.83R

$$

INZ030>032-037>040-046>048-054>057-064-065-230600-
CENTRAL INDIANA

CITY           SKY/WX    TMP DP  RH WIND       PRES   REMARKS
CP ATTERBURY + CLOUDY    73  72  94 CALM      29.83F
FRANKFORT +    CLOUDY    77  76  95 CALM      29.85F
GREENWOOD *+   CLOUDY   N/A N/A N/A SE3       29.85F
INDIANAPOLIS   TSTM      76  74  93 SE6       29.82F
-EAGLE CREEK   CLOUDY    79  74  84 SE6       29.83F
KOKOMO +       CLOUDY    75  73  93 CALM      29.84R
MARION +       CLOUDY    72  72 100 CALM      29.84R
MT COMFORT *+  CLOUDY    75  73  94 SW8       29.86R
SHELBYVILLE    TSTM      76  72  87 W5        29.83F
ZIONSVILLE +   CLOUDY    76  74  95 CALM      29.84F

$$

INZ033-034-041-042-049-050-058-059-230600-
EAST CENTRAL INDIANA

CITY           SKY/WX    TMP DP  RH WIND       PRES   REMARKS
MUNCIE         CLOUDY    76  72  87 CALM      29.84R
RICHMOND +     CLOUDY    73  72  94 W6        29.86S

$$

INZ060-061-067>069-081>083-085>088-230600-
SOUTHWEST INDIANA

CITY           SKY/WX    TMP DP  RH WIND       PRES   REMARKS
EVANSVILLE     PTCLDY    84  74  71 SW10      29.83S
HUNTINGBURG *+ PTCLDY    83  75  77 S10       29.83F

$$

INZ062-063-066-070>080-084-089>092-230600-
SOUTH CENTRAL AND SOUTHEAST INDIANA

CITY           SKY/WX    TMP DP  RH WIND       PRES   REMARKS
BEDFORD +      CLOUDY    82  72  69 CALM      29.82F
BLOOMINGTON    TSTM      72  68  87 W8        29.85R FOG
MADISON *+     CLOUDY    77  73  88 CALM      29.86F
NORTH VERNON + RAIN      73  72  94 CALM      29.84F
SEYMOUR +      CLOUDY    77  75  94 CALM      29.83S

$$





USA.gov is the U.S. government's official web portal to all federal, state and local government web resources and services.